Probability
7 5 2 0 0 0 0 0 0 0 0 0 0 0 0 0 0 0 0 0 0 0 0 0 0 0 0 0 0 0 0 0 0 0 0 0 0 0
4 3 2 0 0 0 0 0 0 0 0 0 0 0 0 0 0 0 0 0 0 0 0 0 0 0 0 0 0 0 0 0 0 0 0 0 0 0
1 1 1 0 0 0 0 0 0 0 0 0 0 0 0 0 0 0 0 0 0 0 0 0 0 0 0 0 0 0 0 0 0 0 0 0 0 0
0 0 0 0 0 0 0 0 0 0 0 0 0 0 0 0 0 0 0 0 0 0 0 0 0 0 0 0 0 0 0 0 0 0 0 0 0 0
0 0 0 0 0 0 0 0 0 0 0 0 0 0 0 0 0 0 0 0 0 0 0 0 0 0 0 0 0 0 0 0 0 0 0 0 0 0
0 0 0 0 0 0 0 0 0 0 0 0 0 0 0 0 0 0 0 0 0 0 0 0 0 0 0 0 0 0 0 0 0 0 0 0 0 0
0 0 0 0 0 0 0 0 0 0 0 0 0 0 0 0 0 0 0 0 0 0 0 0 0 0 0 0 0 0 0 0 0 0 0 0 0 0
0 0 0 0 0 0 0 0 0 0 0 0 0 0 0 0 0 0 0 0 0 0 0 0 0 0 0 0 0 0 0 0 0 0 0 0 0 0
0 0 0 0 0 0 0 0 0 0 0 0 0 0 0 0 0 0 0 0 0 0 0 0 0 0 0 0 0 0 0 0 0 0 0 0 0 0
0 0 0 0 0 0 0 0 0 0 0 0 0 0 0 0 0 0 0 0 0 0 0 0 0 0 0 0 0 0 0 0 0 0 0 0 0 0
0 0 0 0 0 0 0 0 0 0 0 0 0 0 0 0 0 0 0 0 0 0 0 0 0 0 0 0 0 0 0 0 0 0 0 0 0 0
0 0 0 0 0 0 0 0 0 0 0 0 0 0 0 0 0 0 0 0 0 0 0 0 0 0 0 0 0 0 0 0 0 0 0 0 0 0
0 0 0 0 0 0 0 0 0 0 0 0 0 0 0 0 0 0 0 0 0 0 0 0 0 0 0 0 0 0 0 0 0 0 0 0 0 0
0 0 0 0 0 0 0 0 0 0 0 0 0 0 0 0 0 0 0 0 0 0 0 0 0 0 0 0 0 0 0 0 0 0 0 0 0 0
0 0 0 0 0 0 0 0 0 0 0 0 0 0 0 0 0 0 0 0 0 0 0 0 0 0 0 0 0 0 0 0 0 0 0 0 0 0
0 0 0 0 0 0 0 0 0 0 0 0 0 0 0 0 0 0 0 0 0 0 0 0 0 0 0 0 0 0 0 0 0 0 0 0 0 0
0 0 0 0 0 0 0 0 0 0 0 0 0 0 0 0 0 0 0 0 0 0 0 0 0 0 0 0 0 0 0 0 0 0 0 0 0 0
0 0 0 0 0 0 0 0 0 0 0 0 0 0 0 0 0 0 0 0 0 0 0 0 0 0 0 0 0 0 0 0 0 0 0 0 0 0
0 0 0 0 0 0 0 0 0 0 0 0 0 0 0 0 0 0 0 0 0 0 0 0 0 0 0 0 0 0 0 0 0 0 0 0 0 0
0 0 0 0 0 0 0 0 0 0 0 0 0 0 0 0 0 0 0 0 0 0 0 0 0 0 0 0 0 0 0 0 0 0 0 0 0 0
0 0 0 0 0 0 0 0 0 0 0 0 0 0 0 0 0 0 0 0 0 0 0 0 0 0 0 0 0 0 0 0 0 0 0 0 0 0
0 0 0 0 0 0 0 0 0 0 0 0 0 0 0 0 0 0 0 0 0 0 0 0 0 0 0 0 0 0 0 0 0 0 0 0 0 0
0 0 0 0 0 0 0 0 0 0 0 0 0 0 0 0 0 0 0 0 0 0 0 0 0 0 0 0 0 0 0 0 0 0 0 0 0 0
Wind_Speed
4 4 3 2 2 1 1 3 6 6 6 5 3 2 2 2 5 3 2 6 9 11 13 14 15 15 16 16 17 17 18 18 18 18 19 19 19 19
1 3 3 3 3 3 2 1 1 3 3 2 2 2 3 3 5 3 4 9 11 13 14 15 16 16 16 17 17 18 18 19 19 19 19 19 19 19
4 4 5 5 4 3 3 2 2 2 3 2 2 2 2 3 2 3 3 4 5 13 15 16 16 16 17 17 18 18 19 19 19 19 19 20 20 20
6 6 6 5 6 4 3 3 3 3 3 3 2 2 3 3 3 3 4 4 4 11 15 16 16 16 17 18 18 18 18 18 19 19 20 20 21 21
7 7 6 6 6 5 5 4 3 3 3 3 2 1 1 2 2 3 4 4 5 8 12 13 15 16 16 17 17 18 18 19 19 20 20 20 21 21
8 7 7 6 5 5 4 4 3 3 2 2 1 1 1 2 2 2 3 2 3 4 8 11 13 15 16 17 18 19 19 19 20 20 20 20 20 21
9 8 7 8 8 5 4 3 3 2 1 1 1 0 1 1 1 1 2 2 3 4 3 4 5 5 8 14 17 18 19 19 19 19 20 20 21 21
8 7 6 7 8 7 6 4 2 1 1 0 0 1 1 1 1 1 1 2 3 2 3 5 5 6 6 6 14 19 19 19 19 20 20 21 21 21
5 4 4 4 5 3 2 2 2 2 2 1 1 2 2 1 1 1 2 3 5 4 4 8 5 7 7 9 18 19 20 20 20 20 20 20 20 21
4 4 3 3 3 3 3 2 2 2 3 1 2 3 3 3 2 3 4 4 5 4 3 6 5 6 7 6 15 20 20 19 19 19 19 20 20 21
4 4 4 4 4 4 3 2 3 3 5 5 6 7 10 11 8 3 2 3 5 4 2 3 4 4 5 6 8 14 15 17 20 21 21 21 21 20
2 2 3 3 5 5 2 2 3 3 3 4 5 7 6 7 10 4 3 3 3 4 2 2 3 4 6 4 3 4 7 15 20 21 21 21 21 12
2 2 1 4 6 7 5 2 5 4 3 4 4 4 4 3 3 2 2 3 4 6 3 2 3 3 4 7 5 4 5 6 7 11 16 20 20 16
2 2 2 7 8 8 5 6 8 7 2 3 3 3 3 3 3 3 4 4 5 8 7 5 6 6 7 9 9 6 5 5 7 9 7 13 15 18
2 5 6 7 7 5 7 8 6 2 2 2 3 3 3 3 3 4 5 6 7 8 9 9 10 9 9 10 9 9 9 7 6 6 5 6 8 8
3 6 8 8 5 6 6 4 2 2 2 2 3 3 3 4 4 4 5 5 6 7 7 8 9 11 11 11 11 12 9 8 7 7 8 10 9 8
4 3 3 2 2 2 2 3 2 3 3 2 3 4 5 5 6 5 5 6 7 8 8 5 6 8 11 11 12 12 11 11 10 9 9 11 9 8
4 2 3 2 2 3 3 3 3 3 3 4 4 5 6 6 7 6 6 6 8 8 8 7 7 7 7 9 15 14 11 10 9 9 9 12 13 8
2 2 3 3 3 3 3 3 4 4 4 4 5 6 6 6 7 7 7 7 8 9 8 7 7 8 11 11 7 11 9 9 9 10 9 10 13 11
2 2 3 3 3 3 4 4 4 5 5 5 6 6 6 7 7 8 7 8 9 9 9 7 7 7 10 12 11 9 11 11 10 11 11 10 11 15
3 3 3 3 3 4 4 4 5 5 6 6 6 7 6 7 8 8 8 13 12 10 10 10 9 13 10 9 11 10 8 12 15 12 12 12 13 11
3 4 4 4 4 4 4 5 5 6 7 7 7 7 7 7 8 10 9 10 9 10 12 11 10 9 8 11 13 14 14 11 12 19 21 19 13 10
4 4 4 4 4 4 4 5 7 7 7 7 7 7 7 8 8 9 10 10 10 11 12 12 10 8 9 11 13 13 15 14 11 10 10 15 21 24
Wind_Direction
215 200 190 159 143 140 141 168 169 183 207 196 182 172 157 148 184 177 197 242 259 270 276 282 286 287 289 290 292 293 292 290 289 287 286 285 284 284
116 131 122 109 100 92 89 68 122 166 167 148 160 156 164 178 196 191 225 253 267 276 280 283 283 284 286 288 289 289 288 287 286 286 285 285 285 285
86 100 100 101 102 93 89 88 75 100 135 113 106 128 157 176 207 219 236 250 267 275 280 283 284 285 286 287 287 286 286 285 285 285 286 285 286 285
87 93 97 98 95 92 88 86 80 69 113 129 143 159 186 193 207 232 248 252 249 271 279 283 285 286 286 286 285 285 285 285 285 285 285 285 285 285
83 92 96 100 97 91 88 86 82 72 69 115 126 136 179 204 217 244 251 257 263 276 285 289 291 291 289 288 288 287 286 285 284 283 283 283 283 283
72 75 79 85 92 94 92 92 90 84 82 99 128 169 202 214 211 239 265 267 278 290 289 290 292 296 296 295 294 292 289 285 282 281 281 280 280 280
71 68 74 87 92 87 91 92 92 95 108 131 169 199 224 227 234 231 258 289 290 276 277 287 297 293 292 291 292 289 286 284 283 282 282 282 280 279
76 70 71 67 73 73 78 80 81 83 79 124 239 242 258 262 258 259 281 316 301 302 322 295 287 282 278 268 282 287 288 289 289 287 286 284 282 281
78 76 75 78 68 48 28 13 337 307 275 230 244 263 275 269 282 299 278 264 261 274 296 287 275 275 274 283 293 295 297 296 294 292 290 288 286 283
70 65 66 73 69 41 14 9 338 313 289 255 227 254 270 266 241 241 248 269 273 273 267 278 282 276 283 282 292 293 295 296 297 296 294 291 288 285
68 58 48 35 23 17 15 344 327 316 316 311 287 282 282 284 279 269 274 289 293 290 262 261 285 298 286 279 285 293 298 303 304 302 299 296 293 290
57 71 68 33 359 356 2 340 320 313 333 331 317 307 299 291 290 260 212 235 271 289 279 294 298 327 306 282 275 287 293 296 298 299 300 300 300 296
28 20 17 7 349 337 336 321 301 314 322 309 302 301 304 299 299 292 229 211 237 256 267 300 280 271 270 293 291 268 269 281 292 294 297 298 297 294
16 17 352 342 335 330 326 312 316 326 321 304 302 301 302 303 306 311 300 282 257 260 268 266 269 271 279 285 287 287 280 272 277 285 283 292 293 292
347 334 328 326 330 329 322 320 327 326 310 306 302 297 293 294 298 294 284 272 262 259 260 254 256 263 263 269 276 284 297 292 271 267 275 276 276 277
347 328 324 317 310 297 305 317 305 268 283 279 290 295 301 303 297 290 290 292 286 279 258 249 248 252 260 261 267 277 276 276 284 277 277 278 270 261
330 325 318 323 334 330 324 317 315 320 318 302 300 304 304 300 296 293 285 286 281 289 293 274 250 247 250 259 269 269 272 272 271 276 280 282 274 260
336 325 319 327 327 325 323 321 322 318 311 305 301 297 296 295 295 292 285 282 283 285 287 289 288 285 271 252 240 258 265 269 273 270 269 281 285 273
321 307 306 308 305 304 303 301 301 302 301 295 289 287 286 288 289 290 289 286 283 283 284 284 283 286 290 293 265 229 249 272 279 279 274 272 279 281
282 280 286 290 290 292 294 294 295 297 295 291 286 284 283 284 284 284 284 283 285 286 286 279 270 269 275 285 288 276 250 259 271 277 279 275 272 276
287 281 277 278 279 282 285 286 286 288 287 286 284 281 280 279 280 280 282 285 287 285 286 284 275 280 280 279 279 279 267 248 250 264 278 284 288 287
271 273 274 273 273 275 279 280 282 282 283 281 279 278 277 276 278 280 281 283 282 281 283 284 284 282 275 276 280 286 290 285 265 264 264 264 274 281
263 267 270 273 272 272 273 275 277 277 277 277 277 276 276 277 277 277 279 280 281 283 286 287 286 277 273 273 278 283 286 291 292 289 275 266 265 265